Location: Tabor
(49.4170°N, 14.6670°E)
Time: 03:32:34
(UTC+01:00)

ISS - Visible Passes

Search period start: 22 March 2023 00:00
Search period end: 01 April 2023 01:00
Orbit: 414 x 423 km, 51.6° (Epoch: 21 March)

Date Brightness Start Highest point End Pass type
(mag) Time Alt. Az. Time Alt. Az. Time Alt. Az.
22 Mar -3.4 20:18:06 10° W 20:21:25 56° N 20:21:37 54° NNE visible
23 Mar -3.4 19:30:13 10° W 19:33:32 59° N 19:35:46 19° ENE visible
23 Mar -1.5 21:07:11 10° WNW 21:08:43 25° WNW 21:08:43 25° WNW visible
24 Mar -3.6 20:19:18 10° WNW 20:22:38 62° N 20:22:48 61° NNE visible
25 Mar -3.4 19:31:23 10° WNW 19:34:41 57° N 19:36:50 20° ENE visible
25 Mar -1.5 21:08:14 10° WNW 21:09:46 25° WNW 21:09:46 25° WNW visible
26 Mar -3.9 21:20:19 10° WNW 21:23:40 89° NNE 21:23:47 84° E visible
27 Mar -3.7 20:32:21 10° WNW 20:35:43 72° NNE 20:37:46 21° E visible
27 Mar -1.4 22:09:16 10° W 22:10:42 21° W 22:10:42 21° W visible
28 Mar -3.4 21:21:13 10° WNW 21:24:28 50° SSW 21:24:40 49° SSW visible
29 Mar -3.7 20:33:10 10° WNW 20:36:31 71° SSW 20:38:39 20° ESE visible
29 Mar -1.0 22:10:39 10° W 22:11:35 14° WSW 22:11:35 14° WSW visible
30 Mar -2.1 21:22:13 10° W 21:25:00 24° SW 21:25:35 23° SSW visible
31 Mar -2.6 20:33:58 10° W 20:37:04 35° SSW 20:39:36 14° SSE visible
